Weather reports worldwide

Advertisment
Leck, Germany (10022): temperature & dewpoint: 12.01.2020 14:00:00 - 18.01.2020 14:00:00 (CET)Leck, Germany (10022): temperature 5cm & temperature -5cm: 12.01.2020 14:00:00 - 18.01.2020 14:00:00 (CET)Leck, Germany (10022): temperature -20cm & temperature -100cm: 12.01.2020 14:00:00 - 18.01.2020 14:00:00 (CET)Leck, Germany (10022): wind speed & gusts: 12.01.2020 14:00:00 - 18.01.2020 14:00:00 (CET)Leck, Germany (10022): wind direction: 12.01.2020 14:00:00 - 18.01.2020 14:00:00 (CET)Leck, Germany (10022): reduced air pressure: 12.01.2020 14:00:00 - 18.01.2020 14:00:00 (CET)Leck, Germany (10022): visibility: 12.01.2020 14:00:00 - 18.01.2020 14:00:00 (CET)Leck, Germany (10022): sunshine duration: 12.01.2020 14:00:00 - 18.01.2020 14:00:00 (CET)Leck, Germany (10022): precipitation: 12.01.2020 14:00:00 - 18.01.2020 14:00:00 (CET)
Date & Time tt [°C] td [°C] tt 5cm [°C] tt -5cm [°C] tt -20cm [°C] tt -100cm [°C] ff [km/h] ff [kn] fx [km/h] fx [kn] dd ppp [hPa] vv [km] sd [min] rr [mm]
18.01.2020 14:00:00 6,2 4,7 5,6 6,4 5,8 7,1 23 12 42 23 WSW 1016,9 11 13 1,0
18.01.2020 13:00:00 6,9 3,9 6,9 7,0 5,7 7,1 28 15 40 21 WSW 1016,5 30 34 0,1
18.01.2020 12:00:00 6,4 3,3 6,8 5,6 5,7 7,1 23 12 37 20 WSW 1016,2 45 1 0,0
18.01.2020 11:00:00 5,9 3,7 5,0 5,2 5,7 7,1 29 15 42 23 WSW 1015,6 28 3 0,0
18.01.2020 10:00:00 5,7 3,9 5,1 4,9 5,7 7,1 25 14 36 20 SW 1015,0 25 1 0,0
18.01.2020 09:00:00 5,6 2,9 4,7 4,7 5,7 7,1 32 17 59 32 SW 1014,3 33 0 0,0
18.01.2020 08:00:00 5,9 3,1 4,7 4,5 5,8 7,1 34 18 49 26 SW 1013,5 27 0 0,0
18.01.2020 07:00:00 5,9 3,3 4,6 4,5 5,9 7,1 30 16 43 23 SW 1013,2 22 0 0,0
18.01.2020 06:00:00 5,8 2,8 4,7 4,8 6,0 7,1 23 12 52 28 WSW 1013,0 30 0 0,0
18.01.2020 05:00:00 5,7 3,3 4,7 5,0 6,1 7,1 32 17 49 27 WSW 1012,7 33 0 0,0
18.01.2020 04:00:00 5,8 3,8 4,7 5,4 6,1 7,1 37 20 58 31 WSW 1012,2 32 0 0,0
18.01.2020 03:00:00 6,0 5,1 5,5 5,6 6,2 7,1 38 20 59 32 SW 1011,0 3,1 0 0,0
18.01.2020 02:00:00 6,0 4,3 5,1 5,6 6,2 7,1 31 17 48 26 SSW 1011,0 24 0 0,0
18.01.2020 01:00:00 6,6 4,9 5,6 6,0 6,2 7,1 30 16 42 23 SSW 1010,8 24 0 0,0
18.01.2020 00:00:00 7,0 5,5 6,3 5,9 6,3 7,1 27 14 39 21 SW 1010,6 20 0 0,0
17.01.2020 23:00:00 7,4 6,2 6,4 6,7 6,2 7,1 21 12 37 20 SW 1010,7 15 0 0,0
17.01.2020 22:00:00 7,6 6,9 7,1 6,8 6,2 7,1 21 11 33 18 SSW 1010,4 5 0 0,5
17.01.2020 21:00:00 7,4 7,0 7,0 6,8 6,1 7,1 20 11 31 17 SSW 1010,5 1,9 0 1,2
17.01.2020 20:00:00 7,4 6,7 6,9 6,7 6,1 7,1 21 11 29 16 SSW 1010,7 4,7 0 1,6
17.01.2020 19:00:00 7,6 6,6 6,9 6,7 6,0 7,1 18 10 27 15 SSW 1010,8 8 0 0,6
17.01.2020 18:00:00 7,6 6,2 6,8 6,7 6,0 7,1 18 10 34 18 SSW 1011,0 10 0 0,1
17.01.2020 17:00:00 8,3 5,5 7,3 6,7 5,9 7,1 22 12 33 18 SSW 1011,0 39 0 0,0
17.01.2020 16:00:00 8,6 5,2 7,4 6,8 5,8 7,1 18 10 29 16 SSW 1011,0 41 0 0,0
17.01.2020 15:00:00 8,6 5,2 7,5 7,1 5,7 7,1 20 11 30 16 S 1011,2 36 0 0,0
17.01.2020 14:00:00 8,8 5,1 7,9 7,5 5,5 7,1 21 11 34 19 S 1011,7 50 15 0,0
17.01.2020 13:00:00 8,8 5,0 8,1 7,7 5,3 7,1 23 12 39 21 S 1012,4 49 42 0,0
17.01.2020 12:00:00 8,3 4,6 7,5 6,7 5,1 7,1 24 13 36 19 S 1013,0 51 45 0,0
17.01.2020 11:00:00 7,7 4,1 7,5 5,7 5,1 7,1 23 12 33 18 S 1013,7 45 57 0,0
17.01.2020 10:00:00 6,7 3,9 5,5 4,4 5,0 7,1 22 12 37 20 S 1013,9 38 13 0,0
17.01.2020 09:00:00 7,0 3,9 5,2 4,1 5,0 7,1 22 12 35 19 SSE 1014,0 44 0 0,0
17.01.2020 08:00:00 7,0 4,0 4,9 3,9 5,1 7,1 21 11 31 17 S 1014,5 38 0 0,0
17.01.2020 07:00:00 6,9 3,9 4,8 4,0 5,1 7,1 19 11 32 17 SSE 1015,0 33 0 0,0
17.01.2020 06:00:00 6,9 4,0 5,0 4,0 5,1 7,1 20 11 32 17 SSE 1015,5 34 0 0,0
17.01.2020 05:00:00 6,8 4,0 4,8 3,8 5,1 7,1 22 12 34 18 SSE 1016,2 30 0 0,0
17.01.2020 04:00:00 6,5 4,0 4,6 3,7 5,2 7,1 19 10 29 16 S 1017,0 27 0 0,0
17.01.2020 03:00:00 6,3 4,0 4,5 3,6 5,2 7,1 18 10 30 16 SSE 1017,8 28 0 0,0
17.01.2020 02:00:00 6,0 4,0 4,0 3,6 5,3 7,1 15 8 26 14 SSE 1018,5 30 0 0,0
17.01.2020 01:00:00 6,2 3,9 4,2 3,8 5,3 7,1 17 9 30 16 SSE 1019,1 33 0 0,0
17.01.2020 00:00:00 6,5 3,8 4,6 3,9 5,4 7,1 20 11 32 17 SSE 1019,5 40 0 0,0
16.01.2020 23:00:00 6,5 3,7 4,5 3,9 5,5 7,1 21 11 34 18 SSE 1020,2 48 0 0,0
16.01.2020 22:00:00 6,4 3,5 4,4 3,8 5,6 7,1 20 11 37 20 SSE 1020,6 36 0 0,0
16.01.2020 21:00:00 6,8 3,5 4,6 3,9 5,6 7,1 22 12 35 19 SSE 1021,4 34 0 0,0
16.01.2020 20:00:00 6,4 3,6 4,2 3,7 5,8 7,1 18 10 28 15 SSE 1021,9 32 0 0,0
16.01.2020 19:00:00 5,5 3,8 3,5 3,7 5,9 7,1 15 8 23 12 SSE 1022,7 21 0 0,0
16.01.2020 18:00:00 5,5 4,2 3,4 4,0 6,1 7,1 14 8 21 11 SSE 1022,8 17 0 0,0
16.01.2020 17:00:00 6,2 4,6 4,2 4,8 6,1 7,1 11 6 24 13 SSE 1023,3 18 0 0,0
16.01.2020 16:00:00 6,2 5,0 4,8 5,9 6,1 7,1 16 9 28 15 S 1023,6 11 0 0,0
16.01.2020 15:00:00 6,2 5,2 6,2 6,5 6,0 7,1 17 9 28 15 SSW 1023,9 7 0 0,0
16.01.2020 14:00:00 6,0 5,0 6,0 6,4 5,9 7,0 19 11 36 19 SW 1024,0 8 0 0,0
16.01.2020 13:00:00 6,5 5,4 6,5 6,3 5,9 7,0 25 13 41 22 SW 1024,3 12 0 0,0
16.01.2020 12:00:00 6,5 5,4 6,3 6,1 5,8 7,0 29 16 41 22 SW 1024,1 11 0 0,0
16.01.2020 11:00:00 6,4 5,4 6,2 5,6 5,8 7,0 25 13 36 20 SW 1023,5 9 25 0,0
16.01.2020 10:00:00 6,4 5,3 5,7 4,8 5,8 7,0 27 15 41 22 SW 1022,9 15 18 0,0
16.01.2020 09:00:00 6,1 5,1 4,8 4,6 5,9 7,0 26 14 39 21 SW 1022,2 14 0 0,0
16.01.2020 08:00:00 6,2 5,4 5,3 4,5 5,9 7,0 24 13 37 20 SW 1021,3 11 0 0,0
16.01.2020 07:00:00 6,2 5,4 4,8 4,6 6,0 7,0 24 13 32 18 SW 1020,6 13 0 0,0
16.01.2020 06:00:00 6,4 5,5 5,1 4,6 6,1 7,0 23 13 35 19 SW 1019,9 12 0 0,0
16.01.2020 05:00:00 6,3 5,5 5,0 4,7 6,1 7,0 26 14 41 22 SW 1019,1 13 0 0,0
16.01.2020 04:00:00 6,4 5,3 5,0 4,9 6,2 7,0 27 14 40 22 SW 1017,9 16 0 0,0
16.01.2020 03:00:00 6,8 5,5 5,8 5,3 6,2 7,0 30 16 46 25 SW 1017,3 19 0 0,0
16.01.2020 02:00:00 6,5 5,2 5,4 4,8 6,3 7,0 29 16 42 23 SW 1016,5 20 0 0,0
16.01.2020 01:00:00 6,2 5,0 4,8 4,7 6,5 7,0 28 15 39 21 SW 1015,9 21 0 0,0
16.01.2020 00:00:00 6,3 4,8 5,1 4,9 6,6 7,0 27 14 41 22 SW 1014,8 22 0 0,0
15.01.2020 23:00:00 6,2 4,7 4,8 4,8 6,8 7,0 28 15 41 22 SW 1013,5 26 0 0,0
15.01.2020 22:00:00 6,0 4,4 4,5 5,0 6,9 7,0 27 14 41 22 SW 1012,5 32 0 0,0
15.01.2020 21:00:00 6,1 4,3 4,5 5,6 7,1 6,9 22 12 34 18 SW 1011,2 36 0 0,0
15.01.2020 20:00:00 6,3 4,3 5,4 6,3 7,2 6,9 18 10 30 16 WSW 1010,4 48 0 0,1
15.01.2020 19:00:00 6,4 4,7 5,7 6,8 7,2 6,9 20 11 30 16 W 1008,7 22 0 0,2
15.01.2020 18:00:00 7,0 6,0 6,5 7,4 7,3 6,9 21 11 56 30 W 1007,0 36 0 0,6
15.01.2020 17:00:00 8,6 7,1 7,8 7,7 7,3 6,9 42 23 58 32 SW 1005,2 8 0 0,8
15.01.2020 16:00:00 8,5 6,5 7,4 7,7 7,3 6,9 28 15 54 29 SSW 1004,7 21 0 0,3
15.01.2020 15:00:00 9,2 6,8 8,0 8,0 7,3 6,9 37 20 61 33 SSW 1004,3 17 0 0,1
15.01.2020 14:00:00 10,1 6,2 8,9 8,1 7,3 6,9 38 20 56 30 SSW 1004,2 45 0 0,0
15.01.2020 13:00:00 9,6 6,2 8,1 8,0 7,3 6,9 40 22 57 31 SSW 1004,3 27 0 0,0
15.01.2020 12:00:00 9,9 6,2 8,7 8,0 7,3 6,9 40 22 62 34 SSW 1004,0 32 0 0,0
15.01.2020 11:00:00 10,0 6,2 8,8 8,1 7,3 6,9 45 24 64 35 SSW 1003,7 33 0 0,0
15.01.2020 10:00:00 9,9 6,4 8,8 8,1 7,2 6,9 45 25 64 34 SSW 1002,9 34 0 0,0
15.01.2020 09:00:00 10,3 6,7 9,1 8,2 7,2 6,9 49 26 71 39 SSW 1001,7 40 0 0,0
15.01.2020 08:00:00 10,2 7,1 9,1 8,3 7,2 6,9 46 25 68 37 SSW 1000,9 42 0 0,0
15.01.2020 07:00:00 10,1 7,6 9,1 8,3 7,1 6,9 47 26 68 37 SSW 1000,9 36 0 0,0
15.01.2020 06:00:00 9,7 8,0 8,8 8,3 7,1 6,9 49 26 70 38 SSW 1000,6 31 0 0,0
15.01.2020 05:00:00 9,4 8,2 8,7 8,3 7,1 6,9 44 24 66 36 SSW 1000,3 9 0 0,0
15.01.2020 04:00:00 9,6 8,0 8,8 8,4 7,0 6,9 49 26 69 38 SSW 999,9 11 0 0,0
15.01.2020 03:00:00 10,0 8,0 9,0 8,5 6,9 6,9 49 27 73 40 SSW 999,6 29 0 0,0
15.01.2020 02:00:00 9,7 8,6 8,9 8,5 6,8 6,9 50 27 76 41 SSW 999,2 3,2 0 0,0
15.01.2020 01:00:00 10,7 8,1 9,6 8,5 6,7 6,9 52 28 77 42 SSW 998,9 22 0 0,0
15.01.2020 00:00:00 10,6 8,0 9,5 8,3 6,6 6,9 52 28 74 40 SSW 998,5 32 0 0,0
14.01.2020 23:00:00 10,3 7,6 9,2 8,0 6,5 6,9 46 25 75 41 SSW 998,2 41 0 0,0
14.01.2020 22:00:00 9,8 7,2 8,7 7,8 6,5 6,9 45 24 74 40 S 998,2 38 0 0,0
14.01.2020 21:00:00 9,6 7,2 8,4 7,6 6,4 6,9 47 25 74 40 S 998,2 26 0 0,0
14.01.2020 20:00:00 8,8 7,8 8,0 7,5 6,3 6,9 45 24 67 36 S 998,6 2,8 0 0,2
14.01.2020 19:00:00 8,8 7,7 8,0 7,3 6,3 6,9 37 20 53 29 S 999,6 5 0 0,1
14.01.2020 18:00:00 8,7 7,0 7,7 6,8 6,2 6,9 32 18 50 27 S 1000,5 45 0 0,0
14.01.2020 17:00:00 8,5 6,0 7,3 6,6 6,2 6,9 27 15 41 22 SSW 1001,0 46 0 0,0
14.01.2020 16:00:00 7,7 5,9 6,9 6,8 6,2 6,9 29 15 40 21 SSW 1001,4 28 0 0,0
14.01.2020 15:00:00 7,7 6,0 7,1 7,1 6,1 6,9 28 15 48 26 SSW 1001,7 30 0 0,0
14.01.2020 14:00:00 7,8 6,2 7,4 7,4 6,1 6,9 36 19 48 26 SW 1001,6 26 15 0,0
14.01.2020 13:00:00 7,9 5,5 7,8 7,3 6,0 6,9 29 16 41 22 SW 1001,2 28 53 0,0
14.01.2020 12:00:00 7,6 5,3 7,6 7,3 5,9 6,9 25 14 39 21 SW 1001,0 30 37 0,0
14.01.2020 11:00:00 7,2 5,6 6,4 6,5 5,8 6,9 25 13 44 24 SW 1000,2 27 0 0,0
14.01.2020 10:00:00 7,7 6,1 6,9 6,6 5,8 6,9 29 15 54 29 SSW 999,1 27 0 0,0
14.01.2020 09:00:00 8,0 7,1 7,3 6,8 5,6 6,9 39 21 70 38 SSW 998,5 16 0 0,9
14.01.2020 08:00:00 8,1 7,0 7,3 6,7 5,5 6,9 44 24 65 35 SSW 997,8 12 0 0,8
14.01.2020 07:00:00 7,8 6,6 7,0 6,4 5,4 6,9 43 23 69 37 S 997,7 11 0 1,1
14.01.2020 06:00:00 7,5 6,2 6,7 6,0 5,3 6,9 44 24 64 34 S 998,1 8 0 1,8
14.01.2020 05:00:00 7,2 5,6 6,2 5,7 5,3 6,9 41 22 60 33 S 998,8 9 0 1,1
14.01.2020 04:00:00 6,8 5,0 5,8 5,4 5,2 6,9 39 21 59 32 S 1000,2 8 0 0,3
14.01.2020 03:00:00 7,0 4,1 6,0 5,2 5,2 6,9 36 19 55 30 S 1001,4 46 0 0,0
14.01.2020 02:00:00 6,8 4,0 5,8 5,0 5,1 6,9 37 20 54 29 S 1002,8 46 0 0,0
14.01.2020 01:00:00 6,4 3,6 5,4 4,7 5,1 6,9 32 17 49 27 SSE 1003,7 45 0 0,0
14.01.2020 00:00:00 6,1 3,3 5,1 4,5 5,1 6,9 30 16 50 27 SSE 1005,0 40 0 0,0
13.01.2020 23:00:00 5,8 3,4 4,8 4,2 5,2 6,9 27 14 43 23 SSE 1006,3 26 0 0,0
13.01.2020 22:00:00 5,5 3,3 4,1 3,8 5,2 6,9 27 15 38 21 SSE 1007,7 19 0 0,0
13.01.2020 21:00:00 5,3 3,6 3,8 3,6 5,3 6,9 22 12 37 20 SSE 1008,8 18 0 0,0
13.01.2020 20:00:00 5,2 3,2 3,6 3,9 5,4 6,9 18 10 34 18 S 1010,1 23 0 0,0
13.01.2020 19:00:00 5,5 3,7 3,8 4,3 5,5 6,9 17 9 33 18 S 1011,2 19 0 0,0
13.01.2020 18:00:00 5,7 3,9 4,4 4,9 5,5 6,9 19 11 28 15 S 1012,0 20 0 0,0
13.01.2020 17:00:00 5,8 4,1 4,9 5,2 5,5 6,9 18 10 32 18 S 1012,8 18 0 0,0
13.01.2020 16:00:00 6,1 4,2 5,5 5,7 5,5 6,9 22 12 32 18 SSW 1013,2 19 0 0,0
13.01.2020 15:00:00 6,1 4,8 5,7 6,0 5,4 6,9 23 13 34 18 SSW 1013,7 16 0 0,0
13.01.2020 14:00:00 6,2 5,1 6,0 6,1 5,3 6,9 23 13 40 22 SSW 1014,3 12 0 0,0
13.01.2020 13:00:00 6,4 4,9 6,2 6,1 5,2 6,9 15 8 34 18 SW 1015,1 17 0 0,6
13.01.2020 12:00:00 5,7 5,0 5,4 5,5 5,1 6,9 22 12 32 17 SSW 1015,6 7 0 0,1
13.01.2020 11:00:00 5,7 4,9 5,2 5,3 5,1 6,9 16 9 31 17 SSW 1016,0 11 1 0,0
13.01.2020 10:00:00 5,3 4,6 4,6 4,7 5,0 6,9 18 10 28 15 SSW 1016,1 15 0 0,3
13.01.2020 09:00:00 5,4 4,7 4,9 4,4 5,0 6,9 20 11 27 15 SSW 1016,3 14 0 0,0
13.01.2020 08:00:00 5,3 4,8 4,7 4,3 5,0 6,9 14 7 26 14 SSW 1016,0 11 0 0,0
13.01.2020 07:00:00 5,5 5,0 4,8 3,6 5,1 6,9 19 10 27 15 SSW 1016,4 11 0 0,0
13.01.2020 06:00:00 4,2 3,4 1,8 2,8 5,3 6,9 10 5 23 12 SW 1016,1 26 0 0,0
13.01.2020 05:00:00 5,2 3,7 3,2 3,2 5,4 6,9 14 8 23 13 WSW 1016,2 26 0 0,0
13.01.2020 04:00:00 5,2 3,9 3,2 3,5 5,5 6,9 16 9 24 13 WSW 1016,4 22 0 0,0
13.01.2020 03:00:00 5,6 4,0 3,6 4,0 5,7 6,9 15 8 24 13 WSW 1016,4 24 0 0,0
13.01.2020 02:00:00 6,0 4,5 4,2 4,6 5,7 6,9 16 9 29 16 WSW 1016,1 22 0 0,0
13.01.2020 01:00:00 6,5 5,1 4,9 5,2 5,8 6,9 20 11 31 17 W 1015,7 27 0 0,0
13.01.2020 00:00:00 6,4 5,5 5,0 5,5 5,8 6,9 18 10 32 17 W 1015,0 25 0 0,0
12.01.2020 23:00:00 7,1 6,3 6,3 5,8 5,8 6,9 16 9 25 13 W 1014,3 32 0 0,0
12.01.2020 22:00:00 6,9 6,4 6,2 5,8 5,8 6,9 16 9 23 13 W 1013,3 32 0 0,0
12.01.2020 21:00:00 6,3 6,1 5,1 5,4 5,8 6,9 10 5 15 8 W 1012,4 24 0 0,0
12.01.2020 20:00:00 6,7 6,4 6,1 6,1 5,8 6,9 11 6 26 14 WSW 1011,5 19 0 0,0
12.01.2020 19:00:00 7,0 6,7 6,5 6,3 5,7 6,9 17 9 34 18 W 1010,7 20 0 0,0
12.01.2020 18:00:00 7,4 6,9 7,0 6,3 5,6 6,9 29 16 46 25 W 1009,6 15 0 1,3
12.01.2020 17:00:00 6,7 6,4 6,3 5,9 5,6 6,9 29 16 45 24 SW 1008,7 3,6 0 1,6
12.01.2020 16:00:00 5,9 5,5 5,6 5,7 5,6 6,9 29 15 44 24 SSW 1009,6 6 0 2,4
12.01.2020 15:00:00 5,5 5,1 5,3 5,6 5,6 6,9 29 15 46 25 SSW 1010,4 4,8 0 2,9
12.01.2020 14:00:00 5,5 5,0 5,3 5,6 5,6 6,9 31 17 49 26 SSW 1011,2 3,5 0 0,7

tt = temperature
td = dewpoint
tt 5cm = temperature 5cm
tt -5cm = temperature -5cm
tt -20cm = temperature -20cm
tt -100cm = temperature -100cm
ff = wind speed
fx = gusts
dd = wind direction
ppp = reduced air pressure
vv = visibility
sd = sunshine duration
rr = precipitation

Next stations